sat.trackr.live / text

‹ back to catalog

STARLINK-35587

NORAD 66158 · 2025-240N

PAYLOAD ACTIVE UNKNOWN

§ Identity

Operator
Country
US
Launch date
2025-10-25
Launch site
AFWTR
Launch vehicle
Mass (kg)
RCS (m²)

Purposes: comms

External: N2YO · Heavens-Above · Gunter

§ Orbital elements

Epoch: 2026-09-20T22:46:45.111072Z

Period
93.85 min
Inclination
53.1572°
Eccentricity
0.0000975
Mean motion
15.34404021 rev/d
Perigee alt
462.0 km
Apogee alt
463.4 km
Semi-major
6,840.8 km
B*
3.0685e-4
RAAN
233.7224°
Arg perigee
67.7653°
Mean anomaly
292.3453°
Rev number
5,191

§ Raw data

STARLINK-355871 66158U 25240N   26263.94913323  .00010007  00000+0  30685-3 0  99942 66158  53.1572 233.7224 0000975  67.7653 292.3453 15.34404021 51917

JSON: /api/v1/satellites/66158 · /tle

For live sub-satellite position, see the globe view (requires WebGL).

§ Visibility from observer

Set your observer location to see the next 7 days of passes ≥ 10°. The values pass through the URL so the page stays shareable.

No JS? Fill the form by hand. The geolocation button needs JavaScript.